sat.trackr.live / text

‹ back to catalog

STARLINK-3293

NORAD 50176 · 2021-125W

PAYLOAD ACTIVE UNKNOWN

§ Identity

Operator
Country
US
Launch date
2021-12-18
Launch site
AFWTR
Launch vehicle
Mass (kg)
RCS (m²)

Purposes: comms

External: N2YO · Heavens-Above · Gunter

§ Orbital elements

Epoch: 2026-09-20T00:41:43.456416Z

Period
94.01 min
Inclination
53.1593°
Eccentricity
0.0001241
Mean motion
15.31706730 rev/d
Perigee alt
469.9 km
Apogee alt
471.6 km
Semi-major
6,848.9 km
B*
-8.3374e-5
RAAN
84.0483°
Arg perigee
89.8825°
Mean anomaly
270.2318°
Rev number
26,615

§ Raw data

STARLINK-32931 50176U 21125W   26263.02897519 -.00002952  00000+0 -83374-4 0  99982 50176  53.1593  84.0483 0001241  89.8825 270.2318 15.31706730266158

JSON: /api/v1/satellites/50176 · /tle

For live sub-satellite position, see the globe view (requires WebGL).

§ Visibility from observer

Set your observer location to see the next 7 days of passes ≥ 10°. The values pass through the URL so the page stays shareable.

No JS? Fill the form by hand. The geolocation button needs JavaScript.